CZ-6A DEB

Satellite information

Favourite Embed

Satellite Type and Status

DEBRISIN ORBIT

Key statistics

Satellite CZ-6A DEB at a glance.

Uptime

968

Days in orbit

Revolutions

≈ 14.5

Per day

Orbit

SSO

Sun Synchronous Orbit

Inclination

98.6

Latest

Satellite identification and parameters

Extended collection of information and parameters for CZ-6A DEB.

Object identification

Identified? True

Debris? True

Object name: CZ-6A DEB

International designator: 2022-151ZQ

Object number (NORAD): 55868

Object ID (CCSDS): 55868

Country: PEOPLES REPUBLIC OF CHINA (PRC)

Current information (Y/N): Y

RCS size: SMALL

Orbital parameters

Period: 98.975 minutes

Inclination: 98.6065 deg

SMA: 7087.804 km

Apoapsis: 761.331 km

Periapsis: 658.006 km

RAAN: 216.5897 deg

Eccentricy: 0.0072889

Argument of periapsis: 303.6218 deg

Mean anomaly: 55.8038 deg

Mean motion: 14.54907074 rev/day

Mean motion (dot): 0.00005762 rev/day2

B* drag term: 0.0013048 1/REarth

Two-line elements (TLE)

Creation date: July 4, 2025, 6:39 p.m.

Reference frame: TEME

Reference center: EARTH

Epoch: July 4, 2025, 1:51 p.m. UTC

TLE line 0: 0 CZ-6A DEB

TLE line 1: 1 55868U 22151ZQ 25185.57769711 .00005762 00000-0 13048-2 0 9995

TLE line 2: 2 55868 98.6065 216.5897 0072889 303.6218 55.8038 14.54907074 58297

Live tracking on map

Real-time ground track for satellite CZ-6A DEB.

In-orbit conjunctions

A list of the most updated potential collisions computed for object CZ-6A DEB.

Target Orbit TCA Probability of collision Miss distance Type
SL-8 R/B LEO 2025-05-22 07:07:20 0.0003536689 322.0 (m) ROCKET BODY
CZ-2C R/B SSO 2025-04-16 16:32:48 0.0003177853 147.0 (m) ROCKET BODY
COSMOS 1937 LEO 2024-11-21 17:42:51 0.0001253419 603.0 (m) PAYLOAD

Associated space launch

Chinese satellite reported for atmospheric/ocean/environmental/spatial parameter research purposes, details TBD.

CZ-6A DEB was lifted into orbit during the mission ‘Long March 6A | Yunhai 3’, on board a Long March 6A space rocket.

The launch took place on Nov. 11, 2022, 10:52 p.m. from Launch Complex 9A.

For more information about the launch, click the button.

Launch to space Long March 6A | Yunhai 3
Long March 6A | Yunhai 3

Agency: N/A

Status: Launch Successful

Launch date: Nov. 11, 2022, 10:52 p.m. UTC

Rocket: Long March 6A

Launch pad: Launch Complex 9A

Location: Taiyuan Satellite Launch Center, People's Republic of China

...

Latest news about this satellite

There are no fresh news available about this satellite. Check back as we update our databases every day.


Newsletter sign-up

Weekly statistics, charts and insights to help you stay on top of the space industry.